Athens, OH

5:20 PM EDT on June 22, 2017 (GMT -0400)
Ohio University

Weather History for KUNI - January, 2014

Change the Weather History Date:

Friday, January 31, 2014

  Actual Average (KPKB) Record (KPKB)
Temperature  
Mean Temperature 36 °F -  
Max Temperature 43 °F 40 °F 75 °F (2002)
Min Temperature 30 °F 23 °F -2 °F (1936)
Degree Days  
Heating Degree Days 28    
Moisture  
Dew Point 14 °F    
Average Humidity 44    
Maximum Humidity 78    
Minimum Humidity 27    
Precipitation  
Precipitation 0.00 in - - ()
Sea Level Pressure  
Sea Level Pressure 30.11 in    
Wind  
Wind Speed 4 mph (SW)    
Max Wind Speed 12 mph    
Max Gust Speed 23 mph    
Visibility 10 miles    
Events      
Averages and records for this station are not official NWS values.
T = Trace of Precipitation, MM = Missing Value Source: NWS Daily Summary

Daily Weather History Graph

Daily Weather History Graph

Search for Another Location

Airport or City:

Trip Planner

Search our weather history database for the weather conditions in past years. The results will help you decide how hot, cold, wet, or windy it might be!

Date:

Astronomy

Jan. 31, 2014 Rise Set
Actual Time 7:36 AM EST 5:48 PM EST
Civil Twilight 7:08 AM EST 6:16 PM EST
Nautical Twilight 6:36 AM EST 6:48 PM EST
Astronomical Twilight 6:04 AM EST 7:20 PM EST
Moon 7:46 AM EST (1/31) 7:10 PM EST (1/31)
Length of Visible Light 11h 08m
Length of Day
10h 11m
New Moon, 1% of the Moon is Illuminated
Jan 31
New Moon
Feb 6
First Quarter
Feb 14
Full
Feb 22
Last Quarter
Mar 1
New

Hourly Weather History & Observations

Time (EST) Temp. Windchill Dew Point Humidity Pressure Visibility Wind Dir Wind Speed Gust Speed Precip Events Conditions
12:15 AM 33.4 °F 28.1 °F 5.9 °F 31% 30.01 in 10.0 mi SSW 5.8 mph - N/A   Clear
12:35 AM 33.8 °F 27.7 °F 5.0 °F 30% 30.02 in 10.0 mi SSW 6.9 mph - N/A   Clear
12:55 AM 34.3 °F 30.2 °F 4.3 °F 28% 30.03 in 10.0 mi SSW 4.6 mph - N/A   Scattered Clouds
1:15 AM 34.2 °F 31.2 °F 4.8 °F 29% 30.03 in 10.0 mi SSW 3.5 mph - N/A   Scattered Clouds
1:35 AM 34.3 °F 31.4 °F 4.5 °F 29% 30.04 in 10.0 mi SW 3.5 mph - N/A   Scattered Clouds
1:55 AM 34.7 °F 30.6 °F 3.7 °F 27% 30.04 in 10.0 mi SSW 4.6 mph - N/A   Scattered Clouds
2:15 AM 34.7 °F 29.6 °F 4.3 °F 28% 30.05 in 10.0 mi SW 5.8 mph - N/A   Mostly Cloudy
2:35 AM 34.7 °F 31.8 °F 4.5 °F 28% 30.05 in 10.0 mi SSW 3.5 mph - N/A   Overcast
2:55 AM 34.3 °F 30.2 °F 7.0 °F 32% 30.06 in 10.0 mi South 4.6 mph - N/A   Overcast
3:15 AM 34.2 °F - 6.8 °F 32% 30.06 in 10.0 mi Calm Calm - N/A   Overcast
3:35 AM 34.2 °F - 6.6 °F 32% 30.07 in 10.0 mi Calm Calm - N/A   Overcast
3:55 AM 34.2 °F 25.7 °F 10.0 °F 37% 30.06 in 10.0 mi WSW 11.5 mph 16.1 mph N/A   Overcast
4:15 AM 35.8 °F 30.9 °F 9.0 °F 33% 30.07 in 10.0 mi SW 5.8 mph - N/A   Overcast
4:35 AM 36.5 °F 31.0 °F 7.5 °F 30% 30.06 in 10.0 mi SSW 6.9 mph 16.1 mph N/A   Overcast
4:55 AM 35.6 °F 28.6 °F 8.1 °F 32% 30.06 in 10.0 mi SW 9.2 mph 23.0 mph N/A   Overcast
5:15 AM 35.6 °F 29.9 °F 11.1 °F 36% 30.07 in 10.0 mi SSW 6.9 mph - N/A   Overcast
5:35 AM 35.4 °F 31.5 °F 9.1 °F 34% 30.09 in 10.0 mi SSW 4.6 mph - N/A   Overcast
5:55 AM 34.3 °F 30.2 °F 8.8 °F 35% 30.10 in 10.0 mi South 4.6 mph - N/A   Overcast
6:15 AM 33.8 °F 28.6 °F 8.6 °F 35% 30.09 in 10.0 mi South 5.8 mph - N/A   Overcast
6:35 AM 35.4 °F 27.3 °F 7.9 °F 32% 30.11 in 10.0 mi SW 11.5 mph 18.4 mph N/A   Overcast
6:55 AM 33.8 °F 25.8 °F 15.6 °F 47% 30.11 in 10.0 mi WSW 10.4 mph - N/A   Overcast
7:15 AM 33.1 °F 26.1 °F 16.3 °F 50% 30.11 in 10.0 mi West 8.1 mph - N/A   Overcast
7:35 AM 32.9 °F 28.5 °F 18.5 °F 55% 30.11 in 10.0 mi West 4.6 mph - N/A   Overcast
7:55 AM 32.7 °F 28.3 °F 19.2 °F 58% 30.13 in 10.0 mi WSW 4.6 mph - N/A   Overcast
8:15 AM 32.9 °F - 19.0 °F 57% 30.12 in 10.0 mi Calm Calm - N/A   Overcast
8:35 AM 33.4 °F 28.1 °F 19.9 °F 58% 30.14 in 10.0 mi SW 5.8 mph - N/A   Overcast
8:55 AM 33.8 °F - 20.5 °F 58% 30.14 in 10.0 mi Calm Calm - N/A   Overcast
9:15 AM 34.3 °F - 19.9 °F 56% 30.14 in 10.0 mi Calm Calm - N/A   Overcast
9:35 AM 35.1 °F - 19.4 °F 53% 30.14 in 10.0 mi Calm Calm - N/A   Overcast
9:55 AM 36.1 °F 33.5 °F 17.2 °F 46% 30.15 in 10.0 mi South 3.5 mph - N/A   Overcast
10:15 AM 38.3 °F 34.8 °F 15.8 °F 40% 30.16 in 10.0 mi SSW 4.6 mph - N/A   Overcast
10:35 AM 39.9 °F 33.4 °F 12.4 °F 32% 30.15 in 10.0 mi WSW 10.4 mph - N/A   Overcast
10:55 AM 41.0 °F 38.0 °F 11.1 °F 29% 30.15 in 10.0 mi WSW 4.6 mph - N/A   Overcast
11:15 AM 41.0 °F 37.1 °F 10.4 °F 29% 30.15 in 10.0 mi SSW 5.8 mph - N/A   Overcast
11:35 AM 41.5 °F 37.8 °F 10.4 °F 28% 30.14 in 10.0 mi SW 5.8 mph - N/A   Overcast
11:55 AM 41.4 °F 36.2 °F 9.7 °F 27% 30.14 in 10.0 mi SW 8.1 mph - N/A   Overcast
12:15 PM 40.1 °F 36.9 °F 10.9 °F 30% 30.13 in 10.0 mi South 4.6 mph - N/A   Overcast
12:35 PM 39.6 °F 34.0 °F 10.6 °F 30% 30.13 in 10.0 mi South 8.1 mph - N/A   Overcast
12:55 PM 39.6 °F 35.4 °F 11.5 °F 32% 30.12 in 10.0 mi SW 5.8 mph - N/A   Overcast
1:15 PM 40.3 °F 35.5 °F 10.8 °F 30% 30.11 in 10.0 mi SW 6.9 mph - N/A   Overcast
1:35 PM 40.5 °F 37.3 °F 10.4 °F 29% 30.11 in 10.0 mi SW 4.6 mph - N/A   Overcast
1:55 PM 40.6 °F 36.7 °F 11.5 °F 30% 30.11 in 10.0 mi SW 5.8 mph - N/A   Overcast
2:15 PM 40.1 °F 35.3 °F 13.8 °F 34% 30.11 in 10.0 mi WSW 6.9 mph - N/A   Overcast
2:35 PM 42.8 °F - 11.3 °F 28% 30.11 in 10.0 mi Calm Calm - N/A   Overcast
2:55 PM 43.2 °F 40.5 °F 12.2 °F 28% 30.10 in 10.0 mi South 4.6 mph - N/A   Mostly Cloudy
3:15 PM 42.6 °F 39.9 °F 11.7 °F 28% 30.11 in 10.0 mi WSW 4.6 mph - N/A   Mostly Cloudy
3:35 PM 41.9 °F 37.5 °F 13.1 °F 31% 30.11 in 10.0 mi WSW 6.9 mph - N/A   Overcast
3:55 PM 41.9 °F 38.2 °F 12.9 °F 31% 30.12 in 10.0 mi SW 5.8 mph - N/A   Overcast
4:15 PM 41.4 °F - 12.6 °F 31% 30.13 in 10.0 mi Calm Calm - N/A   Overcast
4:35 PM 41.9 °F - 13.6 °F 32% 30.13 in 10.0 mi Calm Calm - N/A   Overcast
4:55 PM 42.1 °F - 13.6 °F 32% 30.13 in 10.0 mi Calm Calm - N/A   Overcast
5:15 PM 41.2 °F - 14.9 °F 34% 30.13 in 10.0 mi Calm Calm - N/A   Overcast
5:35 PM 40.5 °F - 14.9 °F 35% 30.14 in 10.0 mi Calm Calm - N/A   Mostly Cloudy
5:55 PM 38.7 °F - 19.0 °F 45% 30.13 in 10.0 mi Calm Calm - N/A   Scattered Clouds
6:15 PM 37.4 °F - 17.6 °F 45% 30.14 in 10.0 mi Calm Calm - N/A   Mostly Cloudy
6:35 PM 35.4 °F - 18.9 °F 51% 30.14 in 10.0 mi Calm Calm - N/A   Scattered Clouds
6:55 PM 34.5 °F - 19.6 °F 54% 30.14 in 10.0 mi Calm Calm - N/A   Scattered Clouds
7:15 PM 33.1 °F - 21.2 °F 62% 30.14 in 10.0 mi Calm Calm - N/A   Clear
7:35 PM 32.0 °F - 21.7 °F 66% 30.15 in 10.0 mi Calm Calm - N/A   Scattered Clouds
7:55 PM 31.6 °F - 22.5 °F 69% 30.15 in 10.0 mi Calm Calm - N/A   Mostly Cloudy
8:15 PM 32.0 °F - 21.4 °F 65% 30.15 in 10.0 mi Calm Calm - N/A   Overcast
8:35 PM 31.6 °F - 21.7 °F 67% 30.15 in 10.0 mi Calm Calm - N/A   Overcast
8:55 PM 31.8 °F - 22.5 °F 68% 30.14 in 10.0 mi Calm Calm - N/A   Mostly Cloudy
9:15 PM 30.9 °F - 23.0 °F 72% 30.14 in 10.0 mi Calm Calm - N/A   Scattered Clouds
9:35 PM 30.9 °F - 23.0 °F 72% 30.15 in 10.0 mi Calm Calm - N/A   Mostly Cloudy
9:55 PM 30.0 °F - 23.9 °F 78% 30.14 in 10.0 mi Calm Calm - N/A   Overcast
10:15 PM 30.2 °F - 24.1 °F 78% 30.14 in 10.0 mi Calm Calm - N/A   Overcast
10:35 PM 31.1 °F - 24.3 °F 76% 30.14 in 10.0 mi Calm Calm - N/A   Overcast
10:55 PM 31.6 °F - 23.7 °F 73% 30.12 in 10.0 mi Calm Calm - N/A   Overcast
11:15 PM 30.9 °F - 24.4 °F 77% 30.12 in 10.0 mi Calm Calm - N/A   Mostly Cloudy
11:35 PM 31.1 °F - 25.0 °F 78% 30.13 in 10.0 mi Calm Calm - N/A   Overcast
11:55 PM 31.5 °F - 24.8 °F 76% 30.12 in 10.0 mi Calm Calm - N/A   Overcast